sat.trackr.live / text

‹ back to catalog

STARLINK-4581

NORAD 53576 · 2022-101BB

PAYLOAD ACTIVE UNKNOWN

§ Identity

Operator
Country
US
Launch date
2022-08-19
Launch site
AFETR
Launch vehicle
Mass (kg)
RCS (m²)

Purposes: comms

External: N2YO · Heavens-Above · Gunter

§ Orbital elements

Epoch: 2026-09-19T13:56:31.886304Z

Period
94.01 min
Inclination
53.1587°
Eccentricity
0.0001221
Mean motion
15.31700284 rev/d
Perigee alt
469.9 km
Apogee alt
471.6 km
Semi-major
6,848.9 km
B*
2.1448e-5
RAAN
254.1175°
Arg perigee
77.2865°
Mean anomaly
282.8273°
Rev number
22,666

§ Raw data

STARLINK-45811 53576U 22101BB  26262.58092461  .00000300  00000+0  21448-4 0  99902 53576  53.1587 254.1175 0001221  77.2865 282.8273 15.31700284226668

JSON: /api/v1/satellites/53576 · /tle

For live sub-satellite position, see the globe view (requires WebGL).

§ Visibility from observer

Set your observer location to see the next 7 days of passes ≥ 10°. The values pass through the URL so the page stays shareable.

No JS? Fill the form by hand. The geolocation button needs JavaScript.